| time (UTC) | temp C | wind direction | speed KPH | gust KPH | rain 1hr cm | rain 24hr cm | rain mn cm | humidity % | barometer mb |
| 20260503184522 | 14 | 265 | 4.8 | 8.0 | 0.00 | 0.00 | 0.00 | 39 | 1122.0 |
| 20260503183521 | 14 | 256 | 3.2 | 9.7 | 0.00 | 0.00 | 0.00 | 42 | 1122.0 |
| 20260503182521 | 15 | 346 | 3.2 | 8.0 | 0.00 | 0.00 | 0.00 | 43 | 1122.0 |
| 20260503180523 | 13 | 285 | 3.2 | 9.7 | 0.00 | 0.00 | 0.00 | 42 | 1122.3 |
| 20260503175523 | 13 | 336 | 0.0 | 8.0 | 0.00 | 0.00 | 0.00 | 42 | 1122.5 |
| 20260503174621 | 13 | 323 | 3.2 | 6.4 | 0.00 | 0.00 | 0.00 | 45 | 1122.5 |
| 20260503173622 | 13 | 259 | 1.6 | 6.4 | 0.00 | 0.00 | 0.00 | 42 | 1122.8 |
| 20260503172624 | 13 | 233 | 1.6 | 4.8 | 0.00 | 0.00 | 0.00 | 43 | 1122.8 |
| 20260503171722 | 12 | 264 | 3.2 | 8.0 | 0.00 | 0.00 | 0.00 | 42 | 1122.8 |
| 20260503170723 | 12 | 319 | 3.2 | 8.0 | 0.00 | 0.00 | 0.00 | 41 | 1122.8 |
| 20260503150823 | 10 | 248 | 3.2 | 12.9 | 0.00 | 0.00 | 0.00 | 48 | 1124.0 |
| 20260503131021 | 7 | 268 | 0.0 | 0.0 | 0.00 | 0.00 | 0.00 | 83 | 1124.3 |
| 20260503120123 | 2 | 226 | 0.0 | 4.8 | 0.00 | 0.00 | 0.00 | 93 | 1122.8 |
| 20260503110220 | 0 | 337 | 0.0 | 0.0 | 0.00 | 0.00 | 0.00 | 94 | 1121.7 |
| 20260503080923 | 1 | 337 | 0.0 | 0.0 | 0.00 | 0.00 | 0.00 | 92 | 1121.3 |
| 20260503072221 | 1 | 337 | 0.0 | 0.0 | 0.00 | 0.00 | 0.00 | 92 | 1120.9 |
| 20260503071224 | 1 | 337 | 0.0 | 0.0 | 0.00 | 0.00 | 0.00 | 92 | 1120.9 |
| 20260503054422 | 1 | 337 | 0.0 | 0.0 | 0.00 | 0.00 | 0.00 | 90 | 1120.9 |
| 20260503051421 | 1 | 337 | 0.0 | 0.0 | 0.00 | 0.00 | 0.00 | 89 | 1120.9 |
| 20260503050422 | 1 | 337 | 0.0 | 0.0 | 0.00 | 0.00 | 0.00 | 88 | 1121.3 |
| 20260503045421 | 1 | 337 | 0.0 | 0.0 | 0.00 | 0.00 | 0.00 | 88 | 1121.3 |
| 20260503044422 | 1 | 337 | 0.0 | 0.0 | 0.00 | 0.00 | 0.00 | 88 | 1121.3 |
| 20260503043422 | 1 | 337 | 0.0 | 0.0 | 0.00 | 0.00 | 0.00 | 88 | 1121.3 |
| 20260503042424 | 1 | 337 | 0.0 | 0.0 | 0.00 | 0.00 | 0.00 | 87 | 1121.3 |
| 20260503041422 | 1 | 337 | 0.0 | 0.0 | 0.00 | 0.00 | 0.00 | 86 | 1121.3 |
| 20260503040422 | 1 | 337 | 0.0 | 0.0 | 0.00 | 0.00 | 0.00 | 85 | 1121.3 |
| 20260503035508 | 1 | 337 | 0.0 | 0.0 | 0.00 | 0.00 | 0.00 | 84 | 1121.3 |
| 20260503034506 | 2 | 337 | 0.0 | 0.0 | 0.00 | 0.00 | 0.00 | 84 | 1121.3 |
| 20260503033506 | 2 | 337 | 0.0 | 0.0 | 0.00 | 0.00 | 0.00 | 83 | 1121.3 |
| 20260503032606 | 2 | 337 | 0.0 | 0.0 | 0.00 | 0.00 | 0.00 | 82 | 1121.3 |
| 20260503031607 | 2 | 337 | 0.0 | 0.0 | 0.00 | 0.00 | 0.00 | 82 | 1121.7 |
| 20260503025706 | 3 | 337 | 0.0 | 0.0 | 0.00 | 0.00 | 0.00 | 81 | 1121.7 |
| 20260503024707 | 3 | 337 | 0.0 | 0.0 | 0.00 | 0.00 | 0.00 | 80 | 1121.7 |
| 20260503023706 | 3 | 337 | 0.0 | 0.0 | 0.00 | 0.00 | 0.00 | 79 | 1122.0 |
| 20260503022707 | 3 | 337 | 0.0 | 0.0 | 0.00 | 0.00 | 0.00 | 79 | 1122.0 |
| 20260503020708 | 3 | 337 | 0.0 | 1.6 | 0.00 | 0.00 | 0.00 | 78 | 1122.0 |
| 20260503015707 | 3 | 337 | 0.0 | 0.0 | 0.00 | 0.00 | 0.00 | 78 | 1122.0 |
| 20260503014708 | 3 | 337 | 0.0 | 0.0 | 0.00 | 0.00 | 0.00 | 77 | 1122.0 |
| 20260503013707 | 3 | 337 | 0.0 | 0.0 | 0.00 | 0.00 | 0.00 | 76 | 1122.0 |
| 20260503012708 | 3 | 337 | 0.0 | 0.0 | 0.00 | 0.00 | 0.00 | 76 | 1122.0 |
| 20260503011708 | 4 | 337 | 0.0 | 0.0 | 0.00 | 0.00 | 0.00 | 75 | 1122.0 |
| 20260503010707 | 4 | 337 | 0.0 | 3.2 | 0.00 | 0.00 | 0.00 | 75 | 1122.0 |
| 20260503005708 | 4 | 321 | 1.6 | 4.8 | 0.00 | 0.00 | 0.00 | 74 | 1121.9 |
| 20260503004805 | 4 | 292 | 0.0 | 0.0 | 0.00 | 0.00 | 0.00 | 73 | 1121.7 |
| 20260503003808 | 5 | 292 | 0.0 | 0.0 | 0.00 | 0.00 | 0.00 | 72 | 1121.7 |
| 20260503002809 | 5 | 292 | 0.0 | 0.0 | 0.00 | 0.00 | 0.00 | 71 | 1121.7 |
| 20260503000907 | 5 | 279 | 0.0 | 0.0 | 0.00 | 0.00 | 0.00 | 70 | 1121.7 |
| 20260502235906 | 5 | 270 | 0.0 | 0.0 | 0.00 | 0.00 | 0.00 | 70 | 1121.3 |
| 20260502234908 | 5 | 270 | 0.0 | 0.0 | 0.00 | 0.00 | 0.00 | 70 | 1121.3 |
| 20260502233009 | 5 | 290 | 3.2 | 11.3 | 0.00 | 0.00 | 0.00 | 70 | 1121.3 |
| 20260502232107 | 5 | 315 | 0.0 | 0.0 | 0.00 | 0.00 | 0.00 | 69 | 1121.3 |
| 20260502231206 | 5 | 300 | 0.0 | 3.2 | 0.00 | 0.03 | 0.00 | 70 | 1121.3 |
| 20260502230215 | 6 | 22 | 0.0 | 0.0 | 0.00 | 0.15 | 0.00 | 73 | 1121.3 |
| 20260502225208 | 5 | 72 | 1.6 | 4.8 | 0.00 | 0.51 | 0.00 | 73 | 1121.3 |
| 20260502224206 | 6 | 272 | 3.2 | 8.0 | 0.00 | 0.51 | 0.00 | 72 | 1121.3 |
| 20260502223208 | 6 | 300 | 0.0 | 6.4 | 0.00 | 0.51 | 0.00 | 73 | 1121.3 |
| 20260502222307 | 6 | 271 | 0.0 | 3.2 | 0.00 | 0.51 | 0.00 | 73 | 1121.3 |
| 20260502221308 | 6 | 315 | 0.0 | 4.8 | 0.00 | 0.51 | 0.00 | 73 | 1121.3 |
| 20260502220405 | 6 | 292 | 0.0 | 0.0 | 0.00 | 0.51 | 0.00 | 73 | 1121.3 |
| 20260502215407 | 6 | 238 | 0.0 | 1.6 | 0.00 | 0.51 | 0.00 | 73 | 1121.3 |
| 20260502214505 | 7 | 315 | 0.0 | 0.0 | 0.00 | 0.51 | 0.00 | 72 | 1121.3 |
| 20260502212607 | 7 | 309 | 0.0 | 4.8 | 0.00 | 0.51 | 0.00 | 72 | 1121.3 |
| 20260502211608 | 7 | 267 | 0.0 | 3.2 | 0.00 | 0.51 | 0.00 | 72 | 1120.9 |
| 20260502210608 | 7 | 205 | 0.0 | 1.6 | 0.00 | 0.51 | 0.00 | 73 | 1120.9 |
| 20260502205606 | 7 | 240 | 0.0 | 3.2 | 0.00 | 0.51 | 0.00 | 73 | 1120.9 |
| 20260502204608 | 7 | 202 | 0.0 | 0.0 | 0.00 | 0.53 | 0.00 | 71 | 1120.9 |
| 20260502201708 | 7 | 292 | 0.0 | 0.0 | 0.00 | 0.53 | 0.00 | 75 | 1121.2 |
| 20260502200805 | 6 | 336 | 0.0 | 6.4 | 0.00 | 0.53 | 0.00 | 76 | 1120.9 |
| 20260502195807 | 6 | 270 | 0.0 | 3.2 | 0.00 | 0.56 | 0.00 | 75 | 1120.9 |
| 20260502193806 | 6 | 272 | 1.6 | 8.0 | 0.00 | 0.56 | 0.00 | 75 | 1121.3 |
| 20260502192808 | 6 | 332 | 0.0 | 3.2 | 0.00 | 0.56 | 0.00 | 74 | 1121.3 |
| 20260502191808 | 7 | 286 | 1.6 | 4.8 | 0.00 | 0.56 | 0.00 | 74 | 1121.3 |
| 20260502190807 | 7 | 337 | 0.0 | 1.6 | 0.00 | 0.56 | 0.00 | 74 | 1121.5 |